TimePST,TemperatureF,Dew PointF,Humidity,Sea Level PressureIn,VisibilityMPH,Wind Direction,Wind SpeedMPH,Gust SpeedMPH,PrecipitationIn,Events,Conditions,WindDirDegrees,DateUTC
12:53 AM,17.1,10.9,77,30.44,10.0,SSW,6.9,-,N/A,,Clear,200,2013-02-13 08:53:00
1:53 AM,19.0,12.0,74,30.44,10.0,Calm,Calm,-,N/A,,Clear,0,2013-02-13 09:53:00
2:53 AM,18.0,12.9,81,30.43,10.0,NE,5.8,-,N/A,,Clear,50,2013-02-13 10:53:00
3:53 AM,16.0,12.0,84,30.43,10.0,NNW,4.6,-,N/A,,Clear,340,2013-02-13 11:53:00
4:53 AM,14.0,10.0,84,30.44,10.0,East,4.6,-,N/A,,Clear,100,2013-02-13 12:53:00
5:53 AM,12.0,9.0,88,30.47,10.0,Calm,Calm,-,N/A,,Clear,0,2013-02-13 13:53:00
6:53 AM,12.9,10.9,92,30.47,10.0,West,4.6,-,N/A,,Clear,260,2013-02-13 14:53:00
7:53 AM,21.9,16.0,78,30.48,10.0,NE,3.5,-,N/A,,Clear,50,2013-02-13 15:53:00
8:53 AM,30.9,21.0,67,30.48,10.0,Calm,Calm,-,N/A,,Clear,0,2013-02-13 16:53:00
9:53 AM,37.0,23.0,57,30.47,10.0,Calm,Calm,-,N/A,,Clear,0,2013-02-13 17:53:00
10:53 AM,44.1,25.0,47,30.45,10.0,West,5.8,-,N/A,,Clear,270,2013-02-13 18:53:00
11:53 AM,46.9,25.0,42,30.41,10.0,Variable,4.6,-,N/A,,Clear,0,2013-02-13 19:53:00
12:53 PM,50.0,24.1,36,30.40,10.0,Calm,Calm,-,N/A,,Clear,0,2013-02-13 20:53:00
1:53 PM,52.0,25.0,35,30.36,10.0,Variable,4.6,-,N/A,,Clear,0,2013-02-13 21:53:00
2:53 PM,53.1,24.1,32,30.34,10.0,Variable,4.6,-,N/A,,Clear,0,2013-02-13 22:53:00
3:53 PM,53.1,24.1,32,30.34,10.0,Calm,Calm,-,N/A,,Clear,0,2013-02-13 23:53:00
4:53 PM,52.0,24.1,34,30.34,10.0,SE,4.6,-,N/A,,Clear,130,2013-02-14 00:53:00
5:53 PM,43.0,21.9,43,30.36,10.0,South,5.8,-,N/A,,Clear,180,2013-02-14 01:53:00
6:53 PM,36.0,19.9,52,30.39,10.0,WNW,4.6,-,N/A,,Clear,300,2013-02-14 02:53:00
7:53 PM,33.1,19.0,56,30.38,10.0,Calm,Calm,-,N/A,,Clear,0,2013-02-14 03:53:00
8:53 PM,28.0,17.1,63,30.37,10.0,Calm,Calm,-,N/A,,Clear,0,2013-02-14 04:53:00
9:53 PM,25.0,15.1,66,30.38,10.0,ENE,5.8,-,N/A,,Clear,60,2013-02-14 05:53:00
10:53 PM,25.0,15.1,66,30.36,10.0,Calm,Calm,-,N/A,,Clear,0,2013-02-14 06:53:00
11:53 PM,21.9,12.9,68,30.38,10.0,Calm,Calm,-,N/A,,Clear,0,2013-02-14 07:53:00